Regional Weather Roundup
Issued by NWS

Home | Current Version | Previous Version | Text Only | Print | Product List | Glossary Off
Versions: 1 2 3 4 5 6 7 8 9 10 11 12 13 14 15 16 17 18 19 20 21 22 23 24 25 26 27 28 29 30 31 32 33 34 35 36 37 38 39 40 41 42 43 44 45 46 47 48 49 50

480
ASUS43 KLMK 100602
RWRKY
KENTUCKY REGIONAL WEATHER ROUNDUP
NATIONAL WEATHER SERVICE LOUISVILLE KY
100 AM EST WED FEB 10 2016

NOTE "FAIR" INDICATES FEW OR NO CLOUDS BELOW 12,000 FEET
WITH NO SIGNIFICANT WEATHER AND/OR OBSTRUCTIONS TO VISIBILITY.

KYZ001>023-026-027-061>063-070>075-100700-
WESTERN AND SOUTH CENTRAL KENTUCKY

CITY           SKY/WX    TMP DP  RH WIND       PRES   REMARKS
PADUCAH        CLOUDY    25  11  55 NW12      30.10F WCI  14
HENDERSON      MOCLDY    19  10  68 W14       30.09R WCI   6
OWENSBORO      MOCLDY    19  10  68 NW17      30.07S WCI   4
HOPKINSVILLE   CLOUDY    17  15  90 SW6       30.08F WCI   8
BOWLING GREEN  CLOUDY    20  13  74 W8        30.08S WCI  10
GLASGOW        NOT AVBL
$$

KYZ024-025-028>034-038-045-046-053-100700-
NORTH CENTRAL KENTUCKY

CITY           SKY/WX    TMP DP  RH WIND       PRES   REMARKS
LOUISVILLE/SDF MOCLDY    20  11  68 W9        30.01S WCI   9
LOUISVILLE/LOU MOCLDY    19  11  70 W12       30.01F WCI   7
FORT KNOX      CLOUDY    15  10  80 W6        29.99S WCI   6
$$

KYZ035>037-039>044-047>052-055>060-089>105-100700-
NORTHEAST KENTUCKY

CITY           SKY/WX    TMP DP  RH WIND       PRES   REMARKS
LEXINGTON      CLOUDY    17  11  77 W10       29.96S WCI   5
COVINGTON      LGT SNOW  16  11  80 W9        29.92F WCI   4
FRANKFORT      NOT AVBL
$$

KYZ054-064>069-076>088-106>120-100700-
SOUTHEAST KENTUCKY

CITY           SKY/WX    TMP DP  RH WIND       PRES   REMARKS
JACKSON        CLOUDY    19  10  68 W10G20    29.91R WCI   7
LONDON         LGT SNOW  19  14  81 W10       29.96S VSB 3/4 WCI   7
SOMERSET       NOT AVBL
MIDDLESBORO    NOT AVBL
MONTICELLO     FLURRIES  18  12  77 W15G22    30.02F WCI   4
$$





USA.gov is the U.S. government's official web portal to all federal, state and local government web resources and services.